Location: Berg
(48.5667°N, 13.9833°E)
Time: 09:50:53
(UTC+00:00)

Cosmos 2208 Rocket - Pass Details

Date: 09 April 2020
Orbit: 754 x 806 km, 74.0° (Epoch: 06 June)

Event Time Altitude Azimuth Distance (km) Brightness Sun altitude
Rises 19:46:35 0° 340° (NNW) 3,223 8.2 -18.6°
Reaches altitude 10° 19:49:03 10° 347° (NNW) 2,298 7.2 -19.0°
Maximum altitude 19:54:03 46° 60° (ENE) 1,026 4.5 -19.6°
Enters shadow 19:55:30 37° 102° (ESE) 1,186 4.5 -19.8°
